Location: Waco, TX
(31.5480°N, 97.1670°W)
Time: 20:24:17

ISS - Pass Details

Date: 09 March 2018
Orbit: 403 x 406 km, 51.6° (Epoch: 19 March)

Event Time Altitude Azimuth Distance (km) Brightness Sun altitude
Rises 10:24:45 0° 300° (WNW) 2,317 -0.4 41.9°
Reaches altitude 10° 10:27:06 10° 285° (WNW) 1,454 -1.3 42.3°
Maximum altitude 10:29:42 22° 232° (SW) 922 -1.9 42.7°
Drops below altitude 10° 10:32:19 10° 178° (S) 1,446 -0.4 43.1°
Sets 10:34:39 0° 163° (SSE) 2,300 0.6 43.5°
